Time,TemperatureF,DewpointF,PressureIn,WindDirection,WindDirectionDegrees,WindSpeedMPH,WindSpeedGustMPH,Humidity,HourlyPrecipIn,Conditions,Clouds,dailyrainin,SolarRadiationWatts/m^2,SoftwareType,DateUTC
2013-03-02 00:02:00,28.0,25.0,-100.00,NW,314,3.0,9.0,88,0.00,,,0.02,0.000000,,2013-03-02 05:02:00,
2013-03-02 00:12:00,28.0,25.0,-100.00,NW,314,3.0,9.0,88,0.00,,,0.02,0.000000,,2013-03-02 05:12:00,
2013-03-02 00:22:00,28.0,25.0,-100.00,NW,314,3.0,9.0,88,0.00,,,0.02,0.000000,,2013-03-02 05:22:00,
2013-03-02 00:42:00,28.0,26.0,-100.00,NW,306,3.0,9.0,91,0.00,,,0.02,0.000000,,2013-03-02 05:42:00,
2013-03-02 00:52:00,28.0,26.0,-100.00,NW,306,3.0,9.0,91,0.00,,,0.02,0.000000,,2013-03-02 05:52:00,
2013-03-02 01:02:00,28.0,26.0,-100.00,NW,306,3.0,9.0,91,0.00,,,0.02,0.000000,,2013-03-02 06:02:00,
2013-03-02 01:11:00,28.0,26.0,-100.00,NW,306,3.0,9.0,91,0.00,,,0.02,0.000000,,2013-03-02 06:11:00,
2013-03-02 01:21:00,28.0,26.0,-100.00,NW,306,3.0,9.0,91,0.00,,,0.02,0.000000,,2013-03-02 06:21:00,
2013-03-02 01:42:00,27.0,25.0,-100.00,NW,306,3.0,9.0,93,0.00,,,0.02,0.000000,,2013-03-02 06:42:00,
2013-03-02 01:52:00,27.0,25.0,-100.00,NW,306,3.0,9.0,93,0.00,,,0.02,0.000000,,2013-03-02 06:52:00,
2013-03-02 02:02:00,27.0,25.0,-100.00,NW,306,3.0,9.0,93,0.00,,,0.02,0.000000,,2013-03-02 07:02:00,
2013-03-02 02:11:00,27.0,25.0,-100.00,NW,306,3.0,9.0,93,0.00,,,0.02,0.000000,,2013-03-02 07:11:00,
2013-03-02 02:21:00,27.0,25.0,-100.00,NW,306,3.0,9.0,93,0.00,,,0.02,0.000000,,2013-03-02 07:21:00,
2013-03-02 02:42:00,27.0,26.0,-100.00,WNW,298,1.0,6.0,95,0.00,,,0.02,0.000000,,2013-03-02 07:42:00,
2013-03-02 02:52:00,27.0,26.0,-100.00,WNW,298,1.0,6.0,95,0.00,,,0.02,0.000000,,2013-03-02 07:52:00,
2013-03-02 03:01:00,27.0,26.0,-100.00,WNW,298,1.0,6.0,95,0.00,,,0.02,0.000000,,2013-03-02 08:01:00,
2013-03-02 03:11:00,27.0,26.0,-100.00,WNW,298,1.0,6.0,95,0.00,,,0.02,0.000000,,2013-03-02 08:11:00,
2013-03-02 03:22:00,27.0,26.0,-100.00,WNW,298,1.0,6.0,95,0.00,,,0.02,0.000000,,2013-03-02 08:22:00,
2013-03-02 03:43:00,27.0,26.0,-100.00,WNW,301,2.0,5.0,95,0.00,,,0.02,0.000000,,2013-03-02 08:43:00,
2013-03-02 03:52:00,27.0,26.0,-100.00,WNW,301,2.0,5.0,95,0.00,,,0.02,0.000000,,2013-03-02 08:52:00,
2013-03-02 04:02:00,27.0,26.0,-100.00,WNW,301,2.0,5.0,95,0.00,,,0.02,0.000000,,2013-03-02 09:02:00,
2013-03-02 04:11:00,27.0,26.0,-100.00,WNW,301,2.0,5.0,95,0.00,,,0.02,0.000000,,2013-03-02 09:11:00,
2013-03-02 04:21:00,27.0,26.0,-100.00,WNW,301,2.0,5.0,95,0.00,,,0.02,0.000000,,2013-03-02 09:21:00,
2013-03-02 04:42:00,27.0,26.0,-100.00,NW,311,3.0,7.0,96,0.00,,,0.02,0.000000,,2013-03-02 09:42:00,
2013-03-02 04:52:00,27.0,26.0,-100.00,NW,311,3.0,7.0,96,0.00,,,0.02,0.000000,,2013-03-02 09:52:00,
2013-03-02 05:01:00,27.0,26.0,-100.00,NW,311,3.0,7.0,96,0.00,,,0.02,0.000000,,2013-03-02 10:01:00,
2013-03-02 05:16:00,27.0,26.0,-100.00,NW,311,3.0,7.0,96,0.00,,,0.02,0.000000,,2013-03-02 10:16:00,
2013-03-02 05:22:00,27.0,26.0,-100.00,NW,311,3.0,7.0,96,0.00,,,0.02,0.000000,,2013-03-02 10:22:00,
2013-03-02 05:43:00,27.0,27.0,-100.00,WNW,301,3.0,9.0,99,0.00,,,0.02,0.000000,,2013-03-02 10:43:00,
2013-03-02 05:52:00,27.0,27.0,-100.00,WNW,301,3.0,9.0,99,0.00,,,0.02,0.000000,,2013-03-02 10:52:00,
2013-03-02 06:01:00,27.0,27.0,-100.00,WNW,301,3.0,9.0,99,0.00,,,0.02,0.000000,,2013-03-02 11:01:00,
2013-03-02 06:11:00,27.0,27.0,-100.00,WNW,301,3.0,9.0,99,0.00,,,0.02,0.000000,,2013-03-02 11:11:00,
2013-03-02 06:21:00,27.0,27.0,-100.00,WNW,301,3.0,9.0,99,0.00,,,0.02,0.000000,,2013-03-02 11:21:00,
2013-03-02 06:42:00,27.0,27.0,-100.00,WNW,292,1.0,6.0,100,0.00,,,0.02,0.000000,,2013-03-02 11:42:00,
2013-03-02 06:52:00,27.0,27.0,-100.00,WNW,292,1.0,6.0,100,0.00,,,0.02,0.000000,,2013-03-02 11:52:00,
2013-03-02 07:02:00,27.0,27.0,-100.00,WNW,292,1.0,6.0,100,0.00,,,0.02,0.000000,,2013-03-02 12:02:00,
2013-03-02 07:11:00,27.0,27.0,-100.00,WNW,292,1.0,6.0,100,0.00,,,0.02,0.000000,,2013-03-02 12:11:00,
2013-03-02 07:21:00,27.0,27.0,-100.00,WNW,292,1.0,6.0,100,0.00,,,0.02,0.000000,,2013-03-02 12:21:00,
2013-03-02 07:43:00,27.0,26.0,-100.00,NW,318,3.0,6.0,94,0.00,,,0.02,1.000000,,2013-03-02 12:43:00,
2013-03-02 07:53:00,27.0,26.0,-100.00,NW,318,3.0,6.0,94,0.00,,,0.02,1.000000,,2013-03-02 12:53:00,
2013-03-02 08:02:00,27.0,26.0,-100.00,NW,318,3.0,6.0,94,0.00,,,0.02,1.000000,,2013-03-02 13:02:00,
2013-03-02 08:11:00,27.0,26.0,-100.00,NW,318,3.0,6.0,94,0.00,,,0.02,1.000000,,2013-03-02 13:11:00,
2013-03-02 08:22:00,27.0,26.0,-100.00,NW,318,3.0,6.0,94,0.00,,,0.02,1.000000,,2013-03-02 13:22:00,
2013-03-02 08:42:00,27.0,27.0,-100.00,WNW,300,3.0,8.0,100,0.00,,,0.02,18.000000,,2013-03-02 13:42:00,
2013-03-02 08:53:00,27.0,27.0,-100.00,WNW,300,3.0,8.0,100,0.00,,,0.02,18.000000,,2013-03-02 13:53:00,
2013-03-02 09:01:00,27.0,27.0,-100.00,WNW,300,3.0,8.0,100,0.00,,,0.02,18.000000,,2013-03-02 14:01:00,
2013-03-02 09:11:00,27.0,27.0,-100.00,WNW,300,3.0,8.0,100,0.00,,,0.02,18.000000,,2013-03-02 14:11:00,
2013-03-02 09:22:00,27.0,27.0,-100.00,WNW,300,3.0,8.0,100,0.00,,,0.02,18.000000,,2013-03-02 14:22:00,
2013-03-02 09:42:00,28.0,28.0,-100.00,NW,314,4.0,8.0,100,0.00,,,0.02,62.000000,,2013-03-02 14:42:00,
2013-03-02 09:52:00,28.0,28.0,-100.00,NW,314,4.0,8.0,100,0.00,,,0.02,62.000000,,2013-03-02 14:52:00,
2013-03-02 10:02:00,28.0,28.0,-100.00,NW,314,4.0,8.0,100,0.00,,,0.02,62.000000,,2013-03-02 15:02:00,
2013-03-02 10:11:00,28.0,28.0,-100.00,NW,314,4.0,8.0,100,0.00,,,0.02,62.000000,,2013-03-02 15:11:00,
2013-03-02 10:21:00,28.0,28.0,-100.00,NW,314,4.0,8.0,100,0.00,,,0.02,62.000000,,2013-03-02 15:21:00,
2013-03-02 10:42:00,29.0,27.0,-100.00,NW,315,4.0,11.0,92,0.00,,,0.02,152.000000,,2013-03-02 15:42:00,
2013-03-02 10:52:00,29.0,27.0,-100.00,NW,315,4.0,11.0,92,0.00,,,0.02,152.000000,,2013-03-02 15:52:00,
2013-03-02 11:02:00,29.0,27.0,-100.00,NW,315,4.0,11.0,92,0.00,,,0.02,152.000000,,2013-03-02 16:02:00,
2013-03-02 11:11:00,29.0,27.0,-100.00,NW,315,4.0,11.0,92,0.00,,,0.02,152.000000,,2013-03-02 16:11:00,
2013-03-02 11:21:00,29.0,27.0,-100.00,NW,315,4.0,11.0,92,0.00,,,0.02,152.000000,,2013-03-02 16:21:00,
2013-03-02 11:42:00,29.0,27.0,-100.00,NW,305,5.0,11.0,93,0.00,,,0.01,180.000000,,2013-03-02 16:42:00,
2013-03-02 11:52:00,29.0,27.0,-100.00,NW,305,5.0,11.0,93,0.00,,,0.01,180.000000,,2013-03-02 16:52:00,
2013-03-02 12:01:00,29.0,27.0,-100.00,NW,305,5.0,11.0,93,0.00,,,0.01,180.000000,,2013-03-02 17:01:00,
2013-03-02 12:12:00,29.0,27.0,-100.00,NW,305,5.0,11.0,93,0.00,,,0.01,180.000000,,2013-03-02 17:12:00,
2013-03-02 12:21:00,29.0,27.0,-100.00,NW,305,5.0,11.0,93,0.00,,,0.01,180.000000,,2013-03-02 17:21:00,
2013-03-02 12:42:00,29.0,29.0,-100.00,NW,306,3.0,10.0,100,0.01,,,0.02,177.000000,,2013-03-02 17:42:00,
2013-03-02 12:52:00,29.0,29.0,-100.00,NW,306,3.0,10.0,100,0.01,,,0.02,177.000000,,2013-03-02 17:52:00,
2013-03-02 13:02:00,29.0,29.0,-100.00,NW,306,3.0,10.0,100,0.01,,,0.02,177.000000,,2013-03-02 18:02:00,
2013-03-02 13:12:00,29.0,29.0,-100.00,NW,306,3.0,10.0,100,0.01,,,0.02,177.000000,,2013-03-02 18:12:00,
2013-03-02 13:22:00,29.0,29.0,-100.00,NW,306,3.0,10.0,100,0.01,,,0.02,177.000000,,2013-03-02 18:22:00,
2013-03-02 13:42:00,29.0,27.0,-100.00,NW,315,4.0,10.0,91,0.00,,,0.01,153.000000,,2013-03-02 18:42:00,
2013-03-02 13:52:00,29.0,27.0,-100.00,NW,315,4.0,10.0,91,0.00,,,0.01,153.000000,,2013-03-02 18:52:00,
2013-03-02 14:02:00,29.0,27.0,-100.00,NW,315,4.0,10.0,91,0.00,,,0.01,153.000000,,2013-03-02 19:02:00,
2013-03-02 14:12:00,29.0,27.0,-100.00,NW,315,4.0,10.0,91,0.00,,,0.01,153.000000,,2013-03-02 19:12:00,
2013-03-02 14:22:00,29.0,27.0,-100.00,NW,315,4.0,10.0,91,0.00,,,0.01,153.000000,,2013-03-02 19:22:00,
2013-03-02 14:43:00,31.0,27.0,-100.00,NW,312,5.0,10.0,84,0.00,,,0.01,183.000000,,2013-03-02 19:43:00,
2013-03-02 14:52:00,31.0,27.0,-100.00,NW,312,5.0,10.0,84,0.00,,,0.01,183.000000,,2013-03-02 19:52:00,
2013-03-02 15:02:00,31.0,27.0,-100.00,NW,312,5.0,10.0,84,0.00,,,0.01,183.000000,,2013-03-02 20:02:00,
2013-03-02 15:11:00,31.0,27.0,-100.00,NW,312,5.0,10.0,84,0.00,,,0.01,183.000000,,2013-03-02 20:11:00,
2013-03-02 15:22:00,31.0,27.0,-100.00,NW,312,5.0,10.0,84,0.00,,,0.01,183.000000,,2013-03-02 20:22:00,
2013-03-02 15:42:00,29.0,26.0,-100.00,NW,307,4.0,10.0,90,0.00,,,0.01,120.000000,,2013-03-02 20:42:00,
2013-03-02 15:53:00,29.0,26.0,-100.00,NW,307,4.0,10.0,90,0.00,,,0.01,120.000000,,2013-03-02 20:53:00,
2013-03-02 16:02:00,29.0,26.0,-100.00,NW,307,4.0,10.0,90,0.00,,,0.01,120.000000,,2013-03-02 21:02:00,
2013-03-02 16:12:00,29.0,26.0,-100.00,NW,307,4.0,10.0,90,0.00,,,0.01,120.000000,,2013-03-02 21:12:00,
2013-03-02 16:22:00,29.0,26.0,-100.00,NW,307,4.0,10.0,90,0.00,,,0.01,120.000000,,2013-03-02 21:22:00,
2013-03-02 16:42:00,29.0,27.0,-100.00,NW,309,4.0,10.0,91,0.00,,,0.01,65.000000,,2013-03-02 21:42:00,
2013-03-02 16:52:00,29.0,27.0,-100.00,NW,309,4.0,10.0,91,0.00,,,0.01,65.000000,,2013-03-02 21:52:00,
2013-03-02 17:02:00,29.0,27.0,-100.00,NW,309,4.0,10.0,91,0.00,,,0.01,65.000000,,2013-03-02 22:02:00,
2013-03-02 17:11:00,29.0,27.0,-100.00,NW,309,4.0,10.0,91,0.00,,,0.01,65.000000,,2013-03-02 22:11:00,
2013-03-02 17:22:00,29.0,27.0,-100.00,NW,309,4.0,10.0,91,0.00,,,0.01,65.000000,,2013-03-02 22:22:00,
2013-03-02 17:42:00,28.0,28.0,-100.00,NW,304,3.0,9.0,99,0.00,,,0.01,42.000000,,2013-03-02 22:42:00,
2013-03-02 17:52:00,28.0,28.0,-100.00,NW,304,3.0,9.0,99,0.00,,,0.01,42.000000,,2013-03-02 22:52:00,
2013-03-02 18:02:00,28.0,28.0,-100.00,NW,304,3.0,9.0,99,0.00,,,0.01,42.000000,,2013-03-02 23:02:00,
2013-03-02 18:11:00,28.0,28.0,-100.00,NW,304,3.0,9.0,99,0.00,,,0.01,42.000000,,2013-03-02 23:11:00,
2013-03-02 18:21:00,28.0,28.0,-100.00,NW,304,3.0,9.0,99,0.00,,,0.01,42.000000,,2013-03-02 23:21:00,
2013-03-02 18:42:00,28.0,28.0,-100.00,NW,322,2.0,9.0,100,0.00,,,0.01,18.000000,,2013-03-02 23:42:00,
2013-03-02 18:52:00,28.0,28.0,-100.00,NW,322,2.0,9.0,100,0.00,,,0.01,18.000000,,2013-03-02 23:52:00,
2013-03-02 19:02:00,28.0,28.0,-100.00,NW,322,2.0,9.0,100,0.00,,,0.01,18.000000,,2013-03-03 00:02:00,
2013-03-02 19:11:00,28.0,28.0,-100.00,NW,322,2.0,9.0,100,0.00,,,0.01,18.000000,,2013-03-03 00:11:00,
2013-03-02 19:22:00,28.0,28.0,-100.00,NW,322,2.0,9.0,100,0.00,,,0.01,18.000000,,2013-03-03 00:22:00,
2013-03-02 19:42:00,27.0,27.0,-100.00,NW,312,2.0,7.0,100,0.00,,,0.01,0.000000,,2013-03-03 00:42:00,
2013-03-02 19:53:00,27.0,27.0,-100.00,NW,312,2.0,7.0,100,0.00,,,0.01,0.000000,,2013-03-03 00:53:00,
2013-03-02 20:01:00,27.0,27.0,-100.00,NW,312,2.0,7.0,100,0.00,,,0.01,0.000000,,2013-03-03 01:01:00,
2013-03-02 20:11:00,27.0,27.0,-100.00,NW,312,2.0,7.0,100,0.00,,,0.01,0.000000,,2013-03-03 01:11:00,
2013-03-02 20:21:00,27.0,27.0,-100.00,NW,312,2.0,7.0,100,0.00,,,0.01,0.000000,,2013-03-03 01:21:00,
2013-03-02 20:42:00,27.0,27.0,-100.00,WNW,298,4.0,9.0,100,0.00,,,0.01,0.000000,,2013-03-03 01:42:00,
2013-03-02 20:52:00,27.0,27.0,-100.00,WNW,298,4.0,9.0,100,0.00,,,0.01,0.000000,,2013-03-03 01:52:00,
2013-03-02 21:01:00,27.0,27.0,-100.00,WNW,298,4.0,9.0,100,0.00,,,0.01,0.000000,,2013-03-03 02:01:00,
2013-03-02 21:11:00,27.0,27.0,-100.00,WNW,298,4.0,9.0,100,0.00,,,0.01,0.000000,,2013-03-03 02:11:00,
2013-03-02 21:21:00,27.0,27.0,-100.00,WNW,298,4.0,9.0,100,0.00,,,0.01,0.000000,,2013-03-03 02:21:00,
2013-03-02 21:42:00,27.0,27.0,-100.00,WNW,301,4.0,9.0,100,0.00,,,0.01,0.000000,,2013-03-03 02:42:00,
2013-03-02 21:52:00,27.0,27.0,-100.00,WNW,301,4.0,9.0,100,0.00,,,0.01,0.000000,,2013-03-03 02:52:00,
2013-03-02 22:02:00,27.0,27.0,-100.00,WNW,301,4.0,9.0,100,0.00,,,0.01,0.000000,,2013-03-03 03:02:00,
2013-03-02 22:11:00,27.0,27.0,-100.00,WNW,301,4.0,9.0,100,0.00,,,0.01,0.000000,,2013-03-03 03:11:00,
2013-03-02 22:21:00,27.0,27.0,-100.00,WNW,301,4.0,9.0,100,0.00,,,0.01,0.000000,,2013-03-03 03:21:00,
2013-03-02 22:42:00,27.0,27.0,-100.00,NW,313,3.0,7.0,100,0.00,,,0.01,0.000000,,2013-03-03 03:42:00,
2013-03-02 22:52:00,27.0,27.0,-100.00,NW,313,3.0,7.0,100,0.00,,,0.01,0.000000,,2013-03-03 03:52:00,
2013-03-02 23:01:00,27.0,27.0,-100.00,NW,313,3.0,7.0,100,0.00,,,0.01,0.000000,,2013-03-03 04:01:00,
2013-03-02 23:11:00,27.0,27.0,-100.00,NW,313,3.0,7.0,100,0.00,,,0.01,0.000000,,2013-03-03 04:11:00,
2013-03-02 23:21:00,27.0,27.0,-100.00,NW,313,3.0,7.0,100,0.00,,,0.01,0.000000,,2013-03-03 04:21:00,
2013-03-02 23:42:00,26.0,26.0,-100.00,WNW,298,2.0,7.0,100,0.00,,,0.01,0.000000,,2013-03-03 04:42:00,
2013-03-02 23:52:00,26.0,26.0,-100.00,WNW,298,2.0,7.0,100,0.00,,,0.01,0.000000,,2013-03-03 04:52:00,